Regional Weather Roundup
Issued by NWS

Home | Current Version | Previous Version | Text Only | Print | Product List | Glossary Off
Versions: 1 2 3 4 5 6 7 8 9 10 11 12 13 14 15 16 17 18 19 20 21 22 23 24 25 26 27 28 29 30 31 32 33 34 35 36 37 38 39 40 41 42 43 44 45 46 47 48 49 50

000
ASUS43 KLSX 280910
RWRMO

WEATHER SUMMARY FOR MISSOURI
NATIONAL WEATHER SERVICE SPRINGFIELD MO
400 AM CDT SAT MAY 28 2016

NOTE: "FAIR" INDICATES FEW OR NO CLOUDS BELOW 12,000 FEET WITH NO
       SIGNIFICANT WEATHER AND/OR OBSTRUCTIONS TO VISIBILITY.
       CURRENT SKY AND/OR WEATHER CONDITIONS ARE NOT AVAILABLE FOR
       CHILLICOTHE AND FARMINGTON.

MOZ001>031-035>038-043-044-053-054-281000-
...NORTHERN AND WESTERN MISSOURI...

CITY           SKY/WX    TMP DP  RH WIND       PRES   REMARKS
KANSAS CTY INT MOCLDY    58  57  97 SE5       29.76R
KANSAS C DTWN  CLEAR     61  58  90 CALM      29.76R
LEE`S SUMMIT   CLEAR     58  57  97 SE6       29.77R
ST JOSEPH      MOCLDY    60  58  92 SW6       29.76R
CHILLICOTHE      N/A     61  60  97 CALM      29.75S
KIRKSVILLE     CLOUDY    64  63  96 SE5       29.76S

$$
MOZ066>068-077>081-088>096-101>105-281000-
...SOUTHWEST MISSOURI...

CITY           SKY/WX    TMP DP  RH WIND       PRES   REMARKS
SPRINGFIELD    CLOUDY    64  61  90 S10       29.82S
JOPLIN         CLEAR     63  61  93 S9        29.80R

$$
MOZ032>034-039>042-045>050-055>058-069>072-281000-
...CENTRAL MISSOURI...

CITY           SKY/WX    TMP DP  RH WIND       PRES   REMARKS
COLUMBIA       MOCLDY    67  65  93 S9        29.81R
JEFFERSON CITY MOCLDY    68  65  90 S7        29.81R
ROLLA          PTCLDY    65  63  93 S9        29.84R
SEDALIA        MOCLDY    62  59  90 S12       29.79S
WHITEMAN AFB   CLOUDY    60  60  99 SW1       29.76R
WARRENSBURG    PTCLDY    57  55  94 CALM      29.78R

$$
MOZ051-052-059>065-281000-
...EAST CENTRAL MISSOURI...

CITY           SKY/WX    TMP DP  RH WIND       PRES   REMARKS
ST LOUIS INTL  PTCLDY    69  64  84 S7        29.87R
SPIRIT OF STL  CLEAR     67  65  93 S6        29.85R
ST CHARLES     CLOUDY    69  66  90 SE10      29.85R

$$
MOZ072>076-082>087-097>100-106>115-281000-
...SOUTH CENTRAL AND SOUTHEAST MISSOURI...

CITY           SKY/WX    TMP DP  RH WIND       PRES   REMARKS
CAPE GIRARDEAU PTCLDY    67  66  97 S6        29.91R
FARMINGTON     CLOUDY    66  64  93 S5        29.89R
POPLAR BLUFF   CLOUDY    68  64  87 S6        29.90R
WEST PLAINS    CLOUDY    67  63  87 S5        29.88S

$$




USA.gov is the U.S. government's official web portal to all federal, state and local government web resources and services.